Flag for India Weather past 2 weeks in Jaipur, Rajasthan, India

Now
81 °F

Partly cloudy.


Feels Like: 86 °F
Forecast: 80 / 94 °F
Wind: 8 mph from East

Location: Jaipur / Sanganer

Current Time: Jul 24, 2014 at 9:42:17 PM

Latest Report: Jul 24, 2014 at 9:00 PM


Visibility: 2 mi

Pressure: 29.56 "Hg

Humidity: 84%

Dew point: 75 °F

Location of JaipurLocation

Historic Weather in Jaipur — Graph

°F

Jaipur temperature yesterday

Maximum temperature yesterday: 93 °F (at 2:00 PM)
Minimum temperature yesterday: 84 °F (at 5:00 AM)
Average temperature yesterday: 87 °F

Past Weeks' High & Low Weather Summary

 TemperatureHumidityPressure
High108 °F (Jul 11, 4:00 PM)100% (Jul 17, 3:00 AM)29.62 "Hg (Jul 17, 3:00 AM)
Low75 °F (Jul 21, 1:00 AM)19% (Jul 10, 3:00 PM)29.42 "Hg (Jul 15, 6:00 PM)
Average90 °F58%29.53 "Hg
* Reported Jul 9 8:00 PM — Jul 24 8:00 PM, Jaipur, Weather by CustomWeather, © 2014

Note: Actual official high and low records may vary slightly from our data, if they occured in-between our weather recording intervals... More about our weather records

Advertising

Jaipur weather history for previous 24 hours

 ConditionsComfort  
Time TempWeatherWind HumidityBarometerVisibility
8:00 PM
Jul 24
82 °FPartly cloudy.12 mph74%29.56 "Hg2 mi
7:00 PM82 °FBroken clouds.12 mph74%29.53 "Hg2 mi
5:00 PM86 °FBroken clouds.13 mph62%29.50 "Hg2 mi
4:00 PM88 °FBroken clouds.8 mph59%29.50 "Hg2 mi
3:00 PM88 °FBroken clouds.10 mph59%29.53 "Hg2 mi
2:00 PM86 °FBroken clouds.9 mph62%29.53 "Hg2 mi
1:00 PM86 °FBroken clouds.9 mph62%29.56 "Hg2 mi
12:00 PM86 °FBroken clouds.10 mph62%29.56 "Hg2 mi
11:00 AM84 °FBroken clouds.9 mph66%29.56 "Hg2 mi
10:00 AM84 °FScattered clouds.9 mph70%29.56 "Hg2 mi
9:00 AM82 °FScattered clouds.9 mph74%29.56 "Hg2 mi
8:00 AM81 °FFog.9 mph79%29.56 "Hg2 mi
7:00 AM79 °FFog.7 mph84%29.53 "Hg2 mi
6:00 AM79 °FFog.5 mph84%29.53 "Hg2 mi
5:00 AM79 °FFog.3 mph84%29.50 "Hg2 mi
4:00 AM81 °FFog.7 mph84%29.50 "Hg2 mi
2:00 AM81 °FPassing clouds.8 mph84%29.50 "Hg2 mi
12:00 AM84 °FPassing clouds.10 mph74%29.53 "Hg2 mi
11:00 PM
Jul 23
86 °FPassing clouds.10 mph70%29.53 "Hg2 mi
10:00 PM86 °FPassing clouds.7 mph66%29.53 "Hg2 mi
9:00 PM86 °FPassing clouds.9 mph66%29.53 "Hg2 mi
Weather by CustomWeather, © 2014

See weather overviewHow to use our weather pages